SCP
0 0 0 0 0 0 0 0 0 0 0 0 0 0 0 0 0 0 0 0 0 0 0 0 0 0 0 0 0 0 0 0 0 0 0 0 0 0 0 0 0 0 0 0
0 0 0 0 0 0 0 0 0 0 0 0 0 0 0 0 0 0 0 0 0 0 0 0 0 0 0 0 0 0 0 0 0 0 0 0 0 0 0 0 0 0 0 0
0 0 0 0 0 0 0 0 0 0 0 0 0 0 0 0 0 0 0 0 0 0 0 0 0 0 0 0 0 0 0 0 0 0 0 0 0 0 0 0 0 0 0 0
0 0 0 0 0 0 0 0 0 0 0 0 0 0 0 0 0 0 0 0 0 0 0 0 0 0 0 0 0 0 0 0 0 0 0 0 0 0 0 0 0 0 0 0
0 0 0 0 0 0 0 0 0 0 0 0 0 0 0 0 0 0 0 0 0 0 0 0 0 0 0 0 0 0 0 0 0 0 0 0 0 0 0 0 0 0 0 0
0 0 0 0 0 0 0 0 0 0 0 0 0 0 0 0 0 0 0 0 0 0 0 0 0 0 0 0 0 0 0 0 0 0 0 0 0 0 0 0 0 0 0 0
0 0 0 0 -0 0 0 0 0 0 0 0 0 0 0 0 0 0 0 0 0 0 0 0 0 0 0 0 0 0 0 0 0 0 0 0 0 0 0 0 0 0 0 0
0 0 0 0 0 0 0 0 0 0 0 0 0 0 0 0 0 0 0 0 0 0 0 0 0 0 0 0 0 0 0 0 0 0 0 0 0 0 -0 0 0 0 0 0
0 0 0 0 0 0 0 0 0 0 0 0 0 0 0 0 0 0 0 0 0 0 0 0 0 0 0 0 0 0 0 0 0 0 0 0 0 0 0 0 0 0 0 0
0 0 0 0 0 0 0 0 0 0 0 0 0 0 0 0 0 0 0 0 0 0 0 0 0 0 0 0 0 0 0 0 0 0 0 0 0 -0 -0 -0 0 0 0 0
0 0 0 0 0 0 0 0 0 0 0 0 0 0 0 0 0 0 0 0 0 0 0 0 -0 -0 0 0 0 0 0 0 0 0 0 0 0 -0 -0 -0 0 0 0 0
0 0 0 0 0 0 0 0 0 0 0 0 0 0 0 0 0 0 0 0 0 0 0 0 -0 -0 0 0 0 0 0 0 0 -0 -0 -0 -0 -0 -0 -0 0 0 0 0
0 0 0 0 0 0 0 0 0 0 0 0 0 0 0 0 0 0 0 0 0 0 0 0 0 0 0 0 0 0 0 0 -0 -0 -0 -0 -0 0 0 0 0 0 0 0
0 0 0 0 0 0 0 0 0 0 0 0 0 0 0 0 0 0 0 0 0 0 0 0 0 0 0 0 0 0 0 0 0 -0 -0 -0 -0 0 0 0 0 0 0 -0
0 0 0 0 0 0 0 0 0 0 0 0 0 0 0 0 0 0 0 0 0 0 0 0 0 0 0 0 0 0 0 0 0 0 -0 0 0 0 0 0 0 0 0 -0
0 0 0 0 0 0 0 0 0 0 0 0 0 0 -0 -0 -0 -0 0 0 0 0 0 0 0 0 0 0 0 0 0 0 0 0 0 0 0 0 0 0 0 0 0 -0
0 0 0 0 0 0 0 0 0 0 0 0 0 -0 -0 -0 -0 -0 0 0 0 0 0 0 0 0 0 0 0 0 0 0 0 0 0 0 0 0 0 0 0 0 0 0
0 0 0 0 0 0 0 0 0 0 0 0 0 -0 -0 -0 -0 -0 0 0 0 0 0 0 0 0 0 0 0 0 0 0 0 0 -0 0 0 0 0 0 0 0 0 0
0 0 0 0 0 0 0 0 0 0 0 0 0 -0 -0 -0 -0 -0 0 0 0 0 0 0 0 0 0 0 0 -0 0 0 0 0 0 0 0 0 0 0 0 0 0 0
0 0 0 0 0 0 0 0 0 0 0 0 0 0 0 0 0 0 0 0 0 0 0 0 0 0 0 -0 -0 -0 0 0 0 0 0 0 0 0 0 0 0 0 0 0
0 0 0 0 0 0 0 0 0 0 0 0 0 0 0 0 0 0 0 0 0 0 0 0 0 0 0 -0 -0 -0 0 0 0 0 0 0 0 0 0 0 0 0 0 0
0 0 0 0 0 0 0 0 0 0 0 0 0 0 0 0 0 0 0 0 0 0 0 0 0 0 0 -0 -0 -0 0 0 0 0 0 0 0 0 0 0 0 0 0 0
0 0 0 0 0 0 0 0 0 0 0 0 0 0 0 0 0 0 0 0 0 0 0 0 0 0 0 0 0 0 0 0 0 0 0 0 0 0 0 0 0 0 0 0
0 0 0 0 0 0 0 0 0 0 0 0 0 0 0 0 0 0 0 0 0 0 0 0 0 0 0 0 0 0 0 0 0 0 0 0 0 0 0 0 0 0 0 0
0 0 0 0 0 0 0 0 0 0 0 0 0 0 0 0 0 0 0 0 0 0 0 0 0 0 0 0 0 0 0 0 0 0 0 0 0 0 0 0 0 0 -0 -0
0 0 0 0 0 0 0 0 0 0 0 0 0 0 0 0 0 0 0 0 0 0 0 0 0 0 0 0 0 0 0 0 0 0 0 0 0 0 0 0 0 0 0 0
0 0 0 0 0 0 0 0 0 0 0 0 0 0 0 0 0 0 0 0 0 0 0 0 0 0 0 0 0 0 0 0 0 0 0 0 0 0 0 0 0 0 0 0
Wind_Speed
2 3 1 1 4 6 4 4 6 7 8 9 10 11 11 12 12 12 12 11 10 9 8 7 7 7 7 7 6 7 7 7 6 6 6 6 6 6 6 6 6 5 5 4
1 1 3 5 6 6 4 5 8 9 5 6 9 9 10 11 12 13 12 11 10 9 9 7 7 7 7 6 5 6 6 6 5 5 6 5 5 5 5 5 5 5 5 4
1 2 2 4 3 2 3 3 6 5 5 11 10 11 11 11 11 12 12 11 10 9 7 7 6 6 6 5 5 6 5 5 4 4 5 4 4 4 4 3 3 4 3 3
1 3 3 3 1 6 7 6 5 8 10 9 9 8 7 8 11 11 11 10 8 7 7 6 5 4 4 4 5 5 4 4 4 4 4 4 4 3 2 2 2 2 2 2
3 2 1 2 2 5 6 4 4 11 11 11 12 9 6 5 9 10 9 9 7 6 6 5 5 4 5 5 4 5 4 4 4 4 4 3 3 2 1 1 1 1 2 3
4 3 2 2 1 6 9 4 4 9 12 12 9 5 5 7 10 11 10 8 7 5 5 5 4 5 6 5 5 4 4 4 4 4 3 3 2 1 0 1 1 2 2 2
3 2 1 2 1 3 3 6 7 8 10 9 4 4 10 11 10 10 9 8 7 6 5 4 4 6 6 5 4 4 4 4 3 3 2 2 1 1 1 1 1 1 1 1
3 2 3 4 2 3 4 5 8 7 7 7 8 12 13 11 11 10 9 8 7 6 5 4 5 6 6 4 3 3 3 3 2 2 2 2 2 2 2 2 2 2 1 1
4 4 2 2 4 4 7 9 6 7 8 12 13 13 12 11 10 9 8 7 6 6 5 4 4 6 5 3 3 3 3 2 1 2 2 2 3 3 3 3 3 2 2 1
5 4 5 7 7 7 9 9 9 11 12 13 13 13 12 10 9 8 7 7 6 6 6 4 4 4 4 3 3 3 2 1 0 1 2 2 2 3 3 2 2 2 2 1
6 6 7 6 8 11 12 13 13 12 11 12 14 13 11 9 8 7 6 5 5 6 6 5 4 3 3 2 3 2 1 1 1 1 2 2 2 1 2 2 3 3 2 1
8 10 8 7 8 13 14 13 14 14 11 10 11 11 10 8 7 7 7 5 5 5 5 5 4 3 3 3 3 2 1 1 1 1 2 2 2 1 1 1 2 3 3 3
9 11 10 12 12 12 12 13 13 12 12 12 9 10 9 8 7 7 7 6 6 6 5 5 4 4 4 3 3 3 2 2 1 1 2 3 3 3 1 2 3 3 4 4
18 16 14 11 11 12 14 13 12 12 11 11 9 9 9 7 7 7 7 6 6 5 5 5 4 4 4 3 3 2 2 2 2 2 2 3 3 3 3 2 1 3 4 5
13 14 14 14 13 14 14 14 13 12 10 9 9 9 9 8 7 6 6 5 5 4 4 4 4 3 3 3 3 3 2 1 1 1 2 2 2 2 2 2 1 1 2 3
14 15 17 17 17 15 15 15 13 11 10 9 8 9 8 8 7 6 5 5 5 4 4 4 4 4 3 3 3 2 2 3 3 2 1 2 2 2 2 2 1 1 0 2
18 17 18 17 16 15 15 13 12 11 10 10 10 9 8 7 6 5 5 5 5 5 4 4 3 2 2 3 3 2 2 1 2 2 2 2 2 2 2 2 2 1 1 2
16 16 17 18 17 15 14 14 13 12 11 10 10 9 8 8 7 6 5 5 4 2 3 4 3 1 1 2 3 2 2 2 2 3 2 2 2 2 2 2 2 1 1 1
16 17 16 15 15 14 13 13 12 11 11 10 10 9 8 7 7 6 5 5 5 4 3 3 3 2 0 1 2 2 2 2 2 2 3 4 3 2 2 2 2 1 1 0
15 17 17 16 15 14 13 13 12 11 10 10 10 8 7 7 6 6 5 4 4 5 5 4 2 1 1 2 1 1 2 2 3 3 3 3 3 3 2 2 2 2 1 1
18 17 17 16 15 14 14 14 13 12 10 10 10 9 8 7 6 6 5 3 4 4 4 4 2 1 1 1 0 1 1 2 3 4 4 4 3 3 2 2 2 2 1 1
16 15 16 15 14 13 12 12 12 12 11 10 10 9 8 7 6 5 5 5 5 6 4 3 2 2 2 1 1 1 1 3 4 4 4 4 4 3 3 3 2 2 2 1
14 13 14 15 15 13 12 11 12 12 11 10 10 9 8 7 5 5 4 4 4 6 4 3 4 5 3 1 0 1 2 3 4 5 4 4 4 4 4 3 3 2 2 2
12 13 13 13 13 13 12 11 11 10 10 9 9 9 8 6 4 4 4 7 9 8 4 5 6 5 3 1 1 1 2 3 4 4 4 4 4 4 3 3 3 3 3 3
13 12 13 15 14 11 11 10 10 9 9 7 8 8 7 6 6 5 5 6 9 8 4 6 8 6 2 1 1 1 2 3 5 5 5 4 4 4 4 4 4 3 3 3
12 11 11 11 10 9 9 9 7 7 7 6 6 6 5 5 5 5 5 6 9 8 6 4 4 4 3 3 3 3 3 4 4 4 5 5 5 5 4 4 5 4 4 4
11 9 8 8 8 8 8 8 8 8 7 7 6 6 6 6 5 6 7 6 6 5 5 4 4 4 4 4 4 4 4 4 4 4 4 5 5 5 5 6 4 4 4 4
Wind_Direction
231 247 228 54 28 26 59 140 151 159 153 157 152 145 138 132 128 123 119 115 111 106 101 97 93 91 92 93 91 96 95 92 91 92 88 81 76 77 78 82 92 96 93 81
353 7 77 76 55 50 54 81 114 121 108 126 127 128 135 138 136 131 128 124 118 113 108 102 100 100 99 98 96 96 97 97 96 92 88 85 84 82 79 80 86 93 94 89
339 333 62 43 31 68 70 82 131 139 139 138 138 144 148 146 141 137 134 130 124 120 116 111 107 107 109 108 105 103 105 105 101 99 97 95 94 85 86 90 96 103 110 103
91 43 67 276 90 107 91 58 92 111 127 134 133 121 117 133 136 134 133 129 123 119 114 109 110 110 108 104 108 110 109 110 109 109 104 99 95 97 102 104 110 124 135 137
113 93 132 167 180 153 120 83 107 124 125 119 116 102 95 117 126 129 128 126 122 121 117 113 116 117 107 100 104 106 107 109 110 108 104 104 102 105 113 113 118 151 160 164
121 128 177 240 201 134 105 121 156 139 142 144 138 139 151 137 125 124 123 124 125 120 110 110 113 108 100 100 103 108 111 111 110 106 108 114 130 148 140 141 156 158 160 186
121 121 213 310 191 135 138 196 164 155 155 158 157 149 136 131 125 126 127 128 124 119 116 121 115 105 104 108 114 124 116 105 100 106 123 139 122 58 75 84 92 111 141 215
119 126 239 308 69 134 173 127 135 142 147 132 118 120 126 130 130 131 129 125 123 120 122 122 116 112 111 116 125 113 104 98 94 96 107 111 91 52 52 64 64 58 66 25
139 178 221 61 106 115 118 119 121 129 130 127 126 130 130 130 132 131 131 128 125 126 124 119 121 120 120 140 130 110 102 98 86 74 81 92 96 81 59 57 64 57 71 53
95 111 108 98 97 94 105 111 117 124 128 132 130 131 129 131 131 131 129 131 128 124 123 125 131 133 145 158 138 122 131 153 118 101 86 84 89 96 92 82 77 74 75 70
103 130 105 97 114 114 108 109 112 114 119 124 126 128 129 131 133 133 131 134 132 135 142 151 151 154 170 165 136 133 173 223 205 156 146 134 113 115 133 161 168 152 157 158
178 179 147 148 138 127 123 124 127 124 117 120 126 128 127 130 133 134 137 139 140 148 156 163 162 179 204 193 168 163 193 227 216 183 171 158 146 69 23 179 165 159 177 185
141 137 127 132 131 127 127 129 130 128 130 129 127 128 128 131 136 139 144 149 157 166 171 173 180 200 217 202 175 169 191 212 204 187 176 177 174 174 223 312 303 284 268 264
123 120 120 129 132 130 128 126 123 122 126 128 129 129 128 127 134 142 153 163 165 166 171 178 186 207 218 197 175 182 195 206 191 183 173 182 187 191 192 203 277 304 290 273
128 128 131 130 127 127 128 127 126 127 128 127 131 133 134 136 145 154 161 158 150 156 170 175 183 215 217 186 173 181 182 182 170 159 158 169 169 164 168 179 198 265 320 324
124 123 127 131 134 135 135 136 137 139 138 136 138 141 144 146 149 154 156 148 146 166 179 176 191 217 196 174 174 184 203 200 175 156 148 147 146 139 139 147 150 146 281 290
136 141 142 143 144 144 145 146 146 145 144 144 148 146 142 139 140 149 160 163 164 175 177 175 196 212 182 174 177 187 200 218 176 142 154 159 152 151 158 157 161 187 250 258
150 150 151 150 150 149 148 148 148 147 148 151 148 144 144 147 157 169 175 165 153 164 191 190 187 169 162 173 179 186 184 188 169 162 164 163 159 157 154 153 160 170 258 301
143 145 147 147 148 147 148 149 150 150 150 149 149 152 156 163 169 174 170 157 159 184 224 216 182 143 159 216 171 169 178 180 170 165 160 156 146 145 151 156 162 170 180 186
145 147 147 147 146 146 147 148 148 148 150 149 148 149 155 165 167 165 160 169 196 202 204 194 165 162 251 275 214 165 180 172 169 165 157 152 154 157 161 163 163 169 173 178
149 150 150 150 149 149 150 149 149 152 154 152 153 159 165 171 168 156 149 180 231 206 186 182 170 187 224 273 137 154 177 174 166 161 158 161 163 162 164 169 169 176 183 184
150 149 150 149 148 149 151 150 151 153 154 156 159 160 162 168 171 169 179 191 204 186 172 179 186 195 193 112 126 183 174 163 155 154 156 161 162 165 174 178 182 190 186 178
148 147 148 150 150 149 148 152 155 157 159 163 163 165 168 173 170 164 193 217 188 179 172 187 197 196 186 136 185 179 163 162 161 162 166 169 170 172 176 182 188 187 183 181
144 145 146 145 143 146 152 158 157 159 162 163 168 170 168 168 187 199 189 185 184 178 180 199 198 193 178 172 225 193 177 172 170 170 171 170 172 175 180 184 190 195 195 186
143 142 144 148 152 158 159 156 153 157 159 165 173 177 175 173 178 192 182 179 182 178 188 206 206 199 183 193 195 181 174 174 172 170 171 173 177 180 186 188 190 189 189 185
147 150 155 158 157 156 157 158 160 164 163 167 178 184 179 175 174 170 173 180 183 185 190 201 204 200 196 205 213 204 190 177 169 172 175 176 179 180 186 194 193 189 188 189
142 143 144 146 152 156 158 161 164 169 170 171 179 185 180 173 169 174 177 179 184 193 200 205 205 201 203 207 211 211 205 195 185 178 174 176 179 184 189 189 188 186 183 183